Scilly, United Kingdom

7:02 PM GMT on December 17, 2017 (GMT +0000)
Saint Mary's

Weather History for EGHE - December, 2012

Change the Weather History Date:

Thursday, December 27, 2012

  Actual Average Record
Temperature  
Mean Temperature 50 °F -  
Max Temperature 53 °F 47 °F 56 °F (2015)
Min Temperature 49 °F 45 °F 28 °F (2000)
Degree Days  
Heating Degree Days 16    
Moisture  
Dew Point 44 °F    
Average Humidity 78    
Maximum Humidity 90    
Minimum Humidity 70    
Precipitation  
Precipitation 0.01 in - - ()
Sea Level Pressure  
Sea Level Pressure 29.89 in    
Wind  
Wind Speed 27 mph ()    
Max Wind Speed 45 mph    
Max Gust Speed 60 mph    
Visibility 6.5 miles    
Events Rain    
Averages and records for this station are not official NWS values.
T = Trace of Precipitation, MM = Missing Value Source: Averaged Metar Reports

Daily Weather History Graph

Daily Weather History Graph

Search for Another Location

Airport or City:

Trip Planner

Search our weather history database for the weather conditions in past years. The results will help you decide how hot, cold, wet, or windy it might be!

Date:

Astronomy

Dec. 27, 2012 Rise Set
Actual Time 8:23 AM GMT 4:30 PM GMT
Civil Twilight 7:44 AM GMT 5:08 PM GMT
Nautical Twilight 7:03 AM GMT 5:49 PM GMT
Astronomical Twilight 6:23 AM GMT 6:29 PM GMT
Moon 4:04 PM GMT (12/27) 7:20 AM GMT (12/27)
Length of Visible Light 9h 23m
Length of Day
8h 07m
Waxing Gibbous, 99% of the Moon is Illuminated
Dec 27
Waxing Gibbous
Dec 28
Full
Jan 5
Last Quarter
Jan 11
New
Jan 18
First Quarter

Hourly Weather History & Observations

Time (GMT) Temp. Dew Point Humidity Pressure Visibility Wind Dir Wind Speed Gust Speed Precip Events Conditions
2:50 AM 52 °F 48 °F 83% 29.62 in 6 mi WSW 32.2 mph - - Rain Rain
5:50 AM 49 °F 44 °F 77% 29.61 in 7 mi West 34.5 mph - - Rain Rain
8:20 AM 50.0 °F 42.8 °F 76% 29.65 in 6.2 mi West 42.6 mph 54.1 mph N/A   Mostly Cloudy
8:50 AM 50.0 °F 42.8 °F 76% 29.68 in 6.2 mi West 38.0 mph 52.9 mph N/A   Scattered Clouds
9:20 AM 50.0 °F 42.8 °F 76% 29.71 in 6.2 mi West 33.4 mph 49.5 mph N/A   Scattered Clouds
9:50 AM 50.0 °F 42.8 °F 76% 29.74 in 6.2 mi WNW 44.9 mph 59.8 mph N/A   Scattered Clouds
10:20 AM 50.0 °F 44.6 °F 82% 29.80 in 6.2 mi WNW 38.0 mph 50.6 mph N/A   Scattered Clouds
10:50 AM 50.0 °F 42.8 °F 76% 29.83 in 6.2 mi WNW 31.1 mph 42.6 mph N/A   Mostly Cloudy
11:20 AM 50.0 °F 41.0 °F 71% 29.86 in 6.2 mi WNW 31.1 mph 42.6 mph N/A   Partly Cloudy
11:50 AM 50 °F 43 °F 70% 29.91 in 7 mi WNW 32.2 mph - -   Scattered Clouds
11:50 AM 50.0 °F 42.8 °F 76% 29.89 in 6.2 mi WNW 33.4 mph 47.2 mph N/A   Partly Cloudy
12:20 PM 50.0 °F 44.6 °F 82% 29.92 in 6.2 mi WNW 29.9 mph 42.6 mph N/A   Partly Cloudy
12:50 PM 50.0 °F 42.8 °F 76% 29.95 in 6.2 mi WNW 27.6 mph 39.1 mph N/A   Partly Cloudy
1:20 PM 50.0 °F 42.8 °F 76% 29.95 in 6.2 mi WNW 29.9 mph - N/A   Partly Cloudy
1:50 PM 50.0 °F 42.8 °F 76% 29.98 in 6.2 mi WNW 24.2 mph - N/A   Partly Cloudy
2:20 PM 50.0 °F 42.8 °F 76% 30.01 in 6.2 mi WNW 24.2 mph - N/A   Partly Cloudy
2:50 PM 50 °F 45 °F 75% 30.03 in 9 mi WNW 18.4 mph - -   Partly Cloudy
2:50 PM 50.0 °F 44.6 °F 82% 30.01 in 6.2 mi WNW 19.6 mph - N/A   Partly Cloudy
3:20 PM 50.0 °F 44.6 °F 82% 30.04 in 6.2 mi West 19.6 mph - N/A   Partly Cloudy
3:50 PM 50.0 °F 44.6 °F 82% 30.04 in 6.2 mi West 18.4 mph - N/A   Partly Cloudy
5:50 PM 50 °F 44 °F 72% 30.10 in 11 mi West 16.1 mph - -   Overcast
8:50 PM 49 °F 47 °F 90% 30.11 in 4 mi SSW 17.3 mph - -   Light Haze
11:50 PM 53 °F 50 °F 87% 30.09 in 6 mi SW 21.9 mph - -   Partly Cloudy